RH
24 25 24 23 23 23 26 27 26 29 34 33 32 33 35 35 36 36 40 43 42 43 46 47 47 47 46 45 44 45 47 47 48 49 49 52 55 55 55 57 59 62 64 67 70 72 74 76 77 79 82 84 83 80 77 75 76 78 77 75 74 73 70 66 65 60 49 40 34 32 31 31 31 33 35 36 35 34 36 40 44 47 48 49 52 57 60
26 24 22 23 23 23 25 28 27 29 32 34 33 36 39 38 40 43 43 43 43 45 49 50 47 44 44 43 43 43 43 44 46 46 47 51 54 55 56 57 59 61 63 65 69 72 75 77 79 80 81 83 83 81 80 80 76 75 77 77 77 78 76 72 69 66 61 54 46 40 35 32 32 35 38 40 40 40 41 44 46 47 48 48 51 56 58
29 28 25 23 24 26 27 28 29 29 31 34 35 39 42 42 44 48 47 46 47 48 50 50 46 43 43 42 42 40 40 41 42 43 46 51 54 57 58 58 60 62 63 65 68 72 75 77 79 83 84 83 82 80 81 81 80 78 77 78 78 79 80 79 76 73 70 65 60 54 45 39 37 40 42 44 46 48 49 50 52 52 51 51 54 58 61
31 31 29 27 28 31 31 30 29 31 33 35 36 39 43 44 47 51 49 46 48 49 49 48 45 43 42 41 41 40 39 41 41 43 47 52 56 60 60 60 63 66 67 67 68 72 75 76 78 82 85 85 83 82 81 81 82 81 79 79 79 81 83 85 83 80 77 72 68 65 58 49 45 44 47 49 51 54 56 56 58 61 60 59 61 64 65
32 33 32 32 32 31 33 34 34 36 38 38 37 40 43 46 49 50 47 46 47 48 48 46 44 43 42 41 41 41 41 41 43 46 49 53 58 61 62 63 66 68 70 68 68 69 72 74 74 76 78 78 79 81 83 83 83 83 83 84 83 81 81 83 82 83 84 79 71 70 68 62 55 53 54 56 58 61 63 62 63 64 64 65 65 63 61
30 35 37 35 33 32 35 39 39 40 41 40 40 43 45 46 48 48 47 47 49 48 46 45 43 42 42 40 40 41 43 44 46 49 53 56 61 63 64 67 68 68 69 68 67 67 68 70 71 72 72 72 73 75 79 81 81 81 82 84 85 82 81 80 78 79 84 84 78 74 72 69 67 66 66 67 67 67 68 68 67 66 64 64 62 59 56
31 37 39 36 35 38 39 40 41 41 43 44 45 47 48 48 48 48 48 49 50 49 47 46 44 43 41 39 39 42 45 47 50 53 55 59 62 64 66 69 68 67 67 69 69 69 69 71 74 77 74 72 73 74 74 76 76 78 80 82 84 84 83 83 82 79 81 85 86 81 75 73 75 77 77 78 77 75 76 76 74 70 68 67 65 62 59
33 35 37 37 38 40 40 41 42 43 45 45 44 44 48 51 51 50 49 50 52 52 51 49 46 43 40 38 39 42 47 50 53 55 57 60 63 65 68 70 68 66 69 72 73 74 73 72 74 77 76 75 77 79 79 78 79 81 83 84 85 87 88 89 89 85 81 82 86 86 80 76 78 80 83 86 85 81 82 81 77 75 74 73 70 68 66
34 34 39 41 39 40 41 42 43 42 43 44 42 41 46 51 51 51 51 52 53 54 53 50 46 42 39 38 39 43 48 53 56 58 60 61 64 67 71 72 70 69 72 75 75 74 73 72 73 75 77 78 78 81 84 86 87 90 92 91 91 92 93 91 90 88 85 84 86 88 85 83 84 84 85 88 86 83 83 83 83 82 79 75 72 70 69
38 38 39 38 37 41 44 44 42 40 39 42 43 42 44 46 45 46 50 52 53 54 53 49 44 39 38 40 41 43 47 52 56 60 62 63 66 71 72 73 73 73 74 74 74 74 73 72 73 74 78 81 82 84 86 87 89 93 96 93 91 92 94 92 88 86 87 87 88 89 89 88 89 90 89 87 86 83 82 82 83 82 78 75 75 73 71
39 41 39 38 39 42 46 48 47 41 38 41 42 41 41 42 41 43 48 51 52 53 51 47 43 40 40 42 42 42 47 54 58 62 64 65 69 74 74 74 75 76 75 73 73 74 73 73 74 76 78 82 84 85 85 85 86 90 93 93 91 91 92 92 88 86 86 87 87 87 88 89 90 90 89 87 85 84 83 81 80 79 78 78 77 75 72
40 41 39 39 40 41 45 50 49 43 40 40 40 40 40 39 40 44 47 48 48 50 49 46 44 43 41 41 40 42 47 52 56 62 65 66 71 76 76 76 78 78 76 74 74 73 73 75 79 79 79 81 82 84 85 83 84 88 91 92 92 92 90 87 86 86 86 86 85 84 85 87 88 88 86 85 84 83 83 81 79 78 79 80 80 78 76
44 41 37 38 41 42 44 46 46 43 41 38 39 43 43 41 43 45 44 43 43 45 47 47 45 41 38 37 40 43 47 50 53 59 63 64 68 73 77 78 80 79 77 77 79 78 77 79 81 80 80 82 83 84 84 82 82 86 87 87 89 92 90 86 86 88 88 88 87 87 87 87 86 86 85 85 84 83 82 81 79 79 80 81 81 81 80
45 45 42 41 42 43 44 45 46 45 43 43 45 46 45 45 47 47 45 43 43 43 44 45 42 40 38 38 41 45 48 50 52 56 60 63 66 72 76 79 80 79 79 81 84 85 82 81 82 81 82 83 82 79 78 78 81 85 86 86 87 88 89 89 90 90 90 89 89 89 88 87 86 85 85 83 83 82 82 82 82 82 82 82 82 82 82
48 50 47 43 43 45 45 46 49 49 47 48 48 48 48 48 47 46 46 46 45 43 43 43 42 42 40 39 42 46 48 51 54 57 62 67 69 72 75 77 77 77 78 81 85 88 87 84 82 79 80 82 80 77 76 77 80 83 85 85 85 84 85 89 91 91 91 91 90 88 87 86 85 84 83 82 82 81 82 84 85 86 85 85 84 82 82
50 51 50 48 47 48 48 49 52 52 50 49 47 47 51 52 49 47 47 47 45 43 42 42 44 43 40 40 42 46 48 52 56 59 65 70 74 74 75 78 79 77 76 79 83 87 88 86 83 80 79 79 80 79 78 79 79 79 79 78 79 82 87 91 90 90 90 88 87 87 86 85 84 83 83 83 82 83 86 87 88 87 85 83 82 81 82
53 52 52 50 48 48 49 49 51 50 49 49 47 45 48 49 49 50 48 47 45 43 41 42 42 41 39 40 42 47 51 54 57 61 65 70 74 76 78 82 84 83 81 80 81 82 82 81 79 78 77 77 79 80 80 80 79 78 77 77 78 82 88 89 86 86 88 86 83 84 84 83 83 83 84 84 83 85 88 89 87 86 83 82 82 84 86
50 49 48 48 47 50 51 50 50 49 48 50 50 47 46 47 48 49 47 45 43 42 42 44 43 40 39 39 42 48 54 56 58 62 65 70 75 78 80 83 87 88 87 85 83 80 77 76 74 72 70 70 71 72 73 73 73 74 76 78 78 77 79 79 78 79 81 79 77 76 76 76 76 77 79 80 79 80 81 80 79 79 80 81 84 86 88
48 48 50 52 53 54 54 52 52 52 51 52 51 49 47 46 47 48 47 44 43 43 45 46 43 40 39 39 43 49 53 58 61 62 67 74 78 82 85 86 85 84 84 84 84 82 79 78 76 73 70 66 64 62 62 62 62 62 64 65 65 63 63 64 64 64 64 63 62 61 61 61 62 64 66 68 69 69 68 66 66 68 70 73 76 78 79
53 52 54 56 56 56 56 55 55 54 53 54 53 50 48 47 48 48 48 46 44 45 46 45 41 39 38 39 44 50 54 59 62 62 69 79 84 85 89 88 82 79 80 81 81 81 79 77 76 75 73 69 62 58 57 56 55 55 55 55 54 55 54 54 54 54 54 54 54 54 53 53 54 56 57 58 58 58 56 56 56 58 60 62 63 64 65
58 55 57 58 57 58 58 57 57 56 54 53 53 51 50 49 49 50 49 48 46 46 46 44 39 37 39 41 47 53 57 62 65 65 70 81 86 88 92 90 83 77 78 78 76 74 75 75 73 73 73 71 66 60 57 55 53 52 53 53 53 52 52 53 53 52 52 52 51 51 51 51 52 52 53 53 53 53 52 52 52 52 54 55 55 56 56
61 60 60 59 58 61 60 58 58 56 54 54 53 52 51 51 50 51 50 50 49 48 46 43 38 38 40 44 49 56 60 65 71 71 73 79 84 86 89 91 87 81 78 77 73 71 72 72 71 71 72 71 69 65 60 56 54 53 54 55 56 57 58 58 59 57 55 54 52 49 48 47 46 47 47 48 48 48 48 47 47 47 47 47 47 48 48
62 61 61 59 59 61 60 59 59 58 55 54 52 52 53 53 51 50 48 49 51 49 44 40 38 39 43 48 54 59 61 64 71 76 78 80 83 84 83 86 88 86 81 77 74 71 69 68 68 68 69 69 69 66 63 60 58 57 57 58 60 61 62 61 61 59 57 54 52 50 48 45 44 43 43 44 44 43 42 42 40 39 38 39 39 40 41
59 58 60 61 61 61 60 60 60 59 57 55 52 53 55 55 53 50 48 48 49 47 43 41 40 41 46 53 59 63 63 65 71 78 81 83 86 86 82 80 81 84 83 81 77 73 70 69 68 67 68 68 68 67 65 63 61 59 57 57 57 58 58 57 55 55 53 52 50 48 46 44 41 39 37 35 34 33 32 32 29 28 27 27 28 30 31
56 57 60 62 61 62 61 61 61 60 59 55 53 53 54 54 52 51 50 49 50 47 44 42 41 42 48 56 63 65 66 67 71 74 76 81 85 86 82 78 77 79 83 82 79 74 72 70 68 67 67 68 68 66 64 61 58 55 53 51 51 51 50 48 48 47 46 45 43 41 39 37 35 33 31 28 27 26 25 23 22 21 20 20 21 23 25
56 57 59 62 63 63 62 62 63 62 60 57 55 54 54 54 53 53 51 50 50 49 46 44 43 46 51 57 63 66 67 69 72 71 72 77 80 80 80 81 78 78 81 82 78 74 71 68 66 65 65 65 65 63 60 57 54 51 48 46 45 44 44 42 40 39 38 37 35 34 33 32 32 31 30 29 28 26 25 23 22 20 19 18 18 19 20
57 58 60 64 68 66 63 61 62 61 60 59 56 54 54 56 55 52 50 50 50 50 49 47 48 52 55 60 65 68 68 70 72 73 73 76 78 77 79 80 80 80 81 81 78 75 73 70 68 66 64 63 62 60 58 56 54 51 48 44 41 39 38 37 36 35 34 33 32 31 31 31 31 31 30 29 28 26 25 24 23 22 21 19 18 18 17
58 58 60 63 65 65 63 62 61 60 60 59 56 54 56 58 55 52 50 50 50 50 50 50 51 55 59 63 67 70 70 70 72 73 74 75 75 76 77 78 79 80 82 83 82 81 78 75 70 66 65 64 61 59 59 57 55 52 49 45 40 37 34 34 35 35 34 33 32 31 30 29 29 29 28 27 26 25 24 24 24 23 23 22 21 20 19
59 60 60 59 59 60 63 63 62 60 59 59 57 55 57 57 55 52 50 49 48 48 48 49 51 53 57 62 65 67 69 71 73 76 80 79 75 75 78 78 78 81 83 83 83 83 81 77 72 67 65 64 62 60 59 57 53 50 46 42 40 38 36 34 33 33 33 32 31 29 29 27 26 25 24 24 25 25 24 24 24 24 24 23 22 22 21
61 62 61 60 58 60 62 62 60 58 57 58 59 58 57 57 54 51 50 47 46 46 46 48 51 53 56 62 67 67 68 70 72 76 82 83 79 79 84 85 85 87 87 83 78 74 71 70 68 65 64 64 62 58 55 52 48 46 43 40 39 38 36 33 31 30 30 30 28 26 26 24 23 22 22 22 23 25 25 25 25 25 25 24 24 23 23
60 62 60 57 58 60 60 59 57 55 54 57 60 61 59 57 54 51 49 47 46 47 47 48 52 55 58 63 68 69 69 71 74 78 81 81 79 81 85 86 87 88 86 81 75 70 65 64 63 60 58 58 57 52 49 46 43 41 40 38 36 34 31 29 28 26 25 25 23 23 23 23 23 23 23 22 23 24 25 25 24 24 25 25 24 23 23
58 60 57 56 56 58 57 55 54 53 53 56 60 61 58 56 54 52 49 47 46 47 47 50 53 57 60 64 68 71 72 72 74 77 78 77 77 79 81 83 84 86 84 82 80 78 74 70 65 58 51 49 49 47 45 43 40 39 36 32 28 26 25 25 25 24 23 22 21 21 22 23 23 24 24 24 24 25 25 24 24 23 24 25 24 24 24
54 56 56 56 56 56 55 52 52 53 53 54 57 58 57 55 53 52 49 48 47 48 49 51 54 56 58 61 65 70 72 70 68 69 70 71 72 74 75 76 79 80 79 77 76 73 67 62 59 53 47 42 41 42 44 43 40 38 33 26 21 20 21 23 23 22 22 22 21 22 23 24 24 24 24 24 24 24 24 24 23 23 24 25 25 25 26
48 49 51 51 50 50 50 51 53 54 53 54 56 58 57 55 53 51 50 49 48 48 48 50 54 55 55 56 61 66 68 65 63 63 65 65 64 63 62 63 64 63 60 57 53 49 44 43 44 44 40 35 33 35 37 38 36 32 27 22 19 19 21 21 22 22 22 23 23 23 24 24 25 25 24 24 24 23 23 22 22 23 24 25 26 26 27
44 47 47 47 46 45 46 48 50 52 55 57 59 59 58 56 54 52 51 49 48 47 47 50 55 56 54 54 58 62 64 63 63 62 60 58 56 54 54 56 56 52 48 44 41 37 35 35 37 37 35 33 32 31 30 29 28 24 21 20 20 20 21 22 22 21 21 22 23 24 25 26 25 25 24 23 23 23 23 22 22 23 24 25 27 28 28
44 46 47 46 46 47 47 47 49 52 55 60 63 62 60 57 55 53 52 51 49 48 47 51 56 57 55 54 56 59 62 64 64 62 58 54 53 53 53 53 51 48 45 43 40 35 33 34 34 32 29 27 27 26 24 24 22 20 20 21 21 21 22 23 23 22 21 21 23 24 25 25 25 24 23 23 23 24 24 24 24 24 25 26 27 28 28
46 47 47 48 49 50 51 51 52 53 57 63 66 66 63 59 58 56 54 52 50 50 50 52 56 57 57 56 56 57 60 62 63 62 59 56 54 52 51 50 49 47 44 39 34 30 30 31 30 26 21 17 18 18 20 22 22 22 23 23 23 23 23 24 23 23 23 23 24 25 25 25 24 24 24 24 24 24 25 25 25 25 25 25 26 26 26
50 51 51 51 50 51 53 54 54 57 61 65 68 67 64 61 60 59 57 54 53 52 53 54 55 56 56 56 54 54 57 59 61 61 58 53 50 49 47 45 42 38 33 29 26 26 27 27 27 25 19 14 14 17 20 22 23 23 23 23 23 23 23 23 24 24 24 25 26 26 25 25 25 25 25 25 25 26 26 26 26 26 26 26 25 25 25
52 54 54 54 52 52 53 55 57 59 62 66 67 67 65 62 62 61 59 57 56 56 57 57 56 54 53 54 53 53 54 57 58 56 50 45 41 39 37 34 32 29 27 27 27 28 27 27 28 27 21 14 14 19 23 23 22 21 21 23 23 23 24 24 25 25 26 27 28 28 27 26 26 26 26 27 27 27 27 28 28 27 27 26 26 25 25
50 53 55 56 55 54 54 56 59 61 61 64 68 69 69 68 67 66 62 60 61 62 61 61 59 55 52 53 54 52 51 52 51 47 41 36 33 30 29 30 30 30 30 30 29 29 29 29 28 27 22 16 15 20 24 24 23 23 24 25 25 25 26 26 26 27 27 28 28 28 27 27 27 27 27 27 27 28 28 27 27 27 27 27 27 27 27
51 54 57 58 57 57 57 58 60 61 61 64 68 71 71 72 71 67 62 61 63 65 64 64 62 59 56 55 55 53 51 49 46 41 37 34 32 28 27 30 32 31 31 31 30 30 30 29 28 25 20 16 16 21 25 26 26 26 27 27 27 27 27 27 27 27 27 27 28 28 28 28 29 28 29 28 28 27 26 26 25 26 27 28 28 29 29
55 56 57 58 58 59 61 62 62 61 62 64 68 70 71 71 70 67 63 63 64 65 66 65 64 63 61 58 56 55 53 49 45 42 39 37 35 32 30 32 33 32 31 31 31 30 28 27 25 22 18 16 18 23 26 27 28 28 29 29 29 29 28 28 28 28 29 29 29 29 29 30 30 30 29 28 27 25 24 23 24 26 28 30 31 30 29
60 57 57 57 59 61 62 63 62 62 63 64 66 68 70 71 69 67 66 65 66 66 66 65 65 66 66 62 59 56 53 50 47 45 42 40 39 37 34 32 32 30 29 30 30 28 27 26 24 20 18 18 22 26 28 28 28 29 29 29 29 29 30 30 30 30 30 30 31 31 31 31 31 30 28 26 25 23 22 22 23 25 28 30 30 29 29
67 63 60 59 59 61 63 64 63 63 64 64 65 67 71 73 71 69 67 68 68 66 65 65 67 69 68 66 62 58 54 51 50 49 46 42 41 38 35 32 30 29 29 29 29 28 28 28 24 21 20 23 27 29 30 29 29 29 29 29 30 30 30 31 31 31 31 31 31 32 32 31 29 28 26 25 24 24 23 23 23 25 26 27 28 29 29
72 71 67 64 62 63 64 64 65 66 66 65 66 68 72 75 75 72 69 68 69 68 66 67 69 70 71 69 65 59 54 52 52 51 48 44 40 38 35 33 30 28 29 30 31 31 31 28 24 21 21 25 29 31 31 30 31 31 31 31 32 31 32 32 31 31 31 31 32 32 31 29 28 27 26 26 25 24 23 22 22 22 21 22 24 27 27
75 74 72 68 65 64 63 63 65 68 68 66 67 70 73 76 79 78 75 73 71 70 69 70 70 70 72 72 67 60 56 55 55 52 49 45 42 40 37 33 29 28 30 33 33 32 31 27 24 23 24 26 30 32 33 32 33 34 33 32 32 32 32 32 31 30 31 33 33 31 30 30 29 29 27 26 24 22 21 20 19 20 20 20 21 22 22
74 74 73 70 67 65 63 63 64 66 66 66 68 72 76 78 79 80 80 78 75 72 72 74 72 71 73 73 68 62 59 59 58 54 51 48 45 42 37 31 27 27 30 32 33 31 29 26 26 28 29 29 31 34 35 34 35 34 33 33 34 33 32 31 30 30 31 33 32 31 31 31 30 28 25 22 21 20 19 19 19 20 20 20 19 20 21
74 74 74 71 68 66 65 64 64 64 64 66 68 72 75 76 75 76 79 80 78 76 75 75 74 73 73 73 70 65 63 62 60 56 52 48 46 42 37 30 25 24 25 28 30 30 28 27 28 31 31 31 33 36 36 35 35 34 34 34 35 34 33 32 30 30 31 32 31 31 31 29 27 24 22 21 20 20 20 20 19 20 20 20 20 21 21
72 72 71 69 68 67 67 66 66 67 67 68 69 70 71 73 74 77 79 81 81 79 77 74 73 73 74 72 69 67 65 63 58 54 50 48 45 41 36 30 26 23 23 25 26 26 26 27 29 32 33 32 34 37 38 36 35 34 35 36 36 35 34 33 31 30 31 31 30 29 26 24 22 21 20 20 21 20 20 20 20 20 20 21 21 22 22
68 69 68 67 67 68 69 70 70 69 69 71 72 71 69 70 73 78 82 85 86 84 80 75 73 73 72 69 67 67 66 63 58 54 52 49 45 40 34 29 27 27 28 28 27 25 25 26 30 34 34 34 36 39 39 37 35 35 36 36 36 36 34 33 31 30 30 29 27 24 22 20 19 20 20 21 21 21 21 21 21 21 21 21 22 23 24
64 64 65 66 68 69 70 71 71 70 70 71 72 70 68 68 72 77 83 87 87 84 79 75 73 71 69 68 67 67 66 64 62 58 55 51 45 39 33 29 28 29 32 32 30 28 26 27 30 34 36 37 39 40 39 38 37 37 37 37 36 36 35 34 32 29 26 24 23 22 21 20 20 20 21 21 21 22 22 22 22 22 22 22 23 24 26
63 64 65 66 68 69 69 69 69 69 69 69 68 67 66 69 73 77 81 84 84 81 78 75 73 70 68 68 68 67 67 67 66 63 58 52 45 39 34 30 28 29 31 32 33 32 31 30 31 34 37 39 41 40 39 38 39 39 37 36 36 35 34 33 30 27 23 21 21 21 21 21 21 21 22 22 22 22 22 23 23 23 23 24 25 27 30